Weather History for Crestview, FL

Change the Weather History Date:

Friday, December 14, 2012

  Actual Average Record
Temperature  
Mean Temperature 42 °F -  
Max Temperature 52 °F 65 °F 76 °F (1990)
Min Temperature 32 °F 45 °F 21 °F (2010)
Degree Days  
Heating Degree Days 23    
Moisture  
Dew Point 40 °F    
Average Humidity 92    
Maximum Humidity 100    
Minimum Humidity 76    
Precipitation  
Precipitation 0.00 in - - ()
Sea Level Pressure  
Sea Level Pressure 30.25 in    
Wind  
Wind Speed 2 mph (ENE)    
Max Wind Speed 7 mph    
Max Gust Speed -    
Visibility 3 miles    
Events Fog    
Averages and records for this station are not official NWS values.
T = Trace of Precipitation, MM = Missing Value Source: NWS Daily Summary

Daily Weather History Graph

Daily Weather History Graph

Search for Another Location

Airport:

Trip Planner

Search our weather history database for the weather conditions in past years. The results will help you decide how hot, cold, wet, or windy it might be!

Date:

Astronomy

Dec. 14, 2012 Rise Set
Actual Time 6:35 AM CST 4:46 PM CST
Civil Twilight 6:09 AM CST 5:12 PM CST
Nautical Twilight 5:39 AM CST 5:42 PM CST
Astronomical Twilight 5:09 AM CST 6:12 PM CST
Moon 7:43 AM CST (12/14) 6:33 PM CST (12/14)
Length of Visible Light 11h 03m
Length of Day
10h 10m
Waxing Crescent, 3% of the Moon is Illuminated
Dec 14
Waxing Crescent
Dec 19
First Quarter
Dec 28
Full
Jan 4
Last Quarter
Jan 11
New

Hourly Weather History & Observations

Time (CST) Temp. Windchill Dew Point Humidity Pressure Visibility Wind Dir Wind Speed Gust Speed Precip Events Conditions
12:53 AM 35.1 °F - 34.0 °F 96% 30.32 in 5.0 mi Calm Calm - N/A   Clear
1:53 AM 33.1 °F - 30.9 °F 92% 30.31 in 6.0 mi Calm Calm - N/A   Clear
2:22 AM 32.0 °F 27.5 °F 30.2 °F 93% 30.30 in 5.0 mi ENE 4.6 mph - N/A   Mostly Cloudy
2:53 AM 37.0 °F 33.3 °F 35.1 °F 93% 30.30 in 4.0 mi ENE 4.6 mph - N/A   Overcast
3:15 AM 39.2 °F 35.9 °F 37.4 °F 93% 30.30 in 4.0 mi ENE 4.6 mph - N/A   Overcast
3:47 AM 41.0 °F 38.0 °F 39.2 °F 93% 30.29 in 1.8 mi ENE 4.6 mph - N/A   Overcast
3:48 AM 41.0 °F 38.0 °F 39.9 °F 96% 30.29 in 1.8 mi ENE 4.6 mph - N/A   Overcast
4:12 AM 42.8 °F 39.3 °F 41.0 °F 93% 30.29 in 0.8 mi ENE 5.8 mph - N/A   Mist
4:53 AM 42.1 °F 39.2 °F 41.0 °F 96% 30.31 in 0.8 mi ENE 4.6 mph - N/A   Mist
5:06 AM 42.8 °F 40.1 °F 41.0 °F 93% 30.30 in 1.0 mi ENE 4.6 mph - N/A   Mist
6:53 AM 44.1 °F 41.5 °F 42.1 °F 93% 30.33 in 1.5 mi NE 4.6 mph - N/A   Overcast
7:53 AM 44.1 °F 40.8 °F 43.0 °F 96% 30.34 in 1.8 mi ENE 5.8 mph - N/A   Overcast
8:29 AM 44.6 °F 41.4 °F 44.6 °F 100% 30.35 in 2.5 mi NE 5.8 mph - N/A   Overcast
8:53 AM 45.0 °F 41.8 °F 44.1 °F 97% 30.35 in 2.5 mi NE 5.8 mph - N/A   Overcast
9:11 AM 44.6 °F 40.7 °F 42.8 °F 93% 30.35 in 5.0 mi ENE 6.9 mph - N/A   Overcast
9:53 AM 46.0 °F 42.5 °F 44.1 °F 93% 30.35 in 5.0 mi NE 6.9 mph - N/A   Overcast
10:53 AM 46.9 °F - 44.1 °F 90% 30.33 in 5.0 mi East 5.8 mph - N/A   Overcast
11:53 AM 48.0 °F - 44.1 °F 86% 30.31 in 5.0 mi NE 3.5 mph - N/A   Overcast
12:09 PM 48.2 °F - 44.6 °F 87% 30.30 in 6.0 mi NE 3.5 mph - N/A   Overcast
12:53 PM 48.9 °F - 44.1 °F 83% 30.27 in 9.0 mi Calm Calm - N/A   Overcast
1:33 PM 51.8 °F - 44.6 °F 76% 30.25 in 10.0 mi ESE 4.6 mph - N/A   Overcast
1:53 PM 51.1 °F - 45.0 °F 80% 30.25 in 10.0 mi SE 4.6 mph - N/A   Overcast
2:51 PM 51.8 °F - 44.6 °F 76% 30.25 in 10.0 mi SW 3.5 mph - N/A   Scattered Clouds
2:53 PM 52.0 °F - 45.0 °F 77% 30.25 in 10.0 mi SW 5.8 mph - N/A   Partly Cloudy
3:53 PM 48.9 °F - 44.1 °F 83% 30.24 in 10.0 mi WSW 3.5 mph - N/A   Clear
4:53 PM 46.9 °F - 43.0 °F 86% 30.25 in 9.0 mi Calm Calm - N/A   Clear
5:27 PM 42.8 °F - 39.2 °F 87% 30.23 in 1.2 mi Calm Calm - N/A   Clear
5:43 PM 41.0 °F - 39.2 °F 93% 30.23 in 3.0 mi Calm Calm - N/A   Clear
5:50 PM 41.0 °F - 39.2 °F 93% 30.23 in 2.0 mi Calm Calm - N/A   Clear
5:53 PM 41.0 °F - 39.0 °F 93% 30.23 in 2.5 mi Calm Calm - N/A   Clear
6:16 PM 39.2 °F - 37.4 °F 93% 30.22 in 1.5 mi Calm Calm - N/A   Clear
6:21 PM 39.2 °F - 37.4 °F 93% 30.23 in 4.0 mi Calm Calm - N/A   Clear
6:32 PM 39.2 °F - 37.4 °F 93% 30.22 in 1.2 mi Calm Calm - N/A   Partly Cloudy
6:39 PM 39.2 °F - 37.4 °F 93% 30.22 in 0.8 mi Calm Calm - N/A   Mist
6:42 PM 39.2 °F - 37.4 °F 93% 30.22 in 1.5 mi Calm Calm - N/A   Partly Cloudy
6:53 PM 41.0 °F - 39.0 °F 93% 30.23 in 1.5 mi Calm Calm - N/A   Partly Cloudy
6:58 PM 39.2 °F - 37.4 °F 93% 30.23 in 3.0 mi Calm Calm - N/A   Partly Cloudy
7:48 PM 39.2 °F - 37.4 °F 93% 30.22 in 1.8 mi Calm Calm - N/A   Clear
7:49 PM 37.9 °F - 36.0 °F 93% 30.22 in 1.8 mi Calm Calm - N/A   Clear
8:02 PM 37.4 °F - 37.4 °F 100% 30.22 in 1.0 mi Calm Calm - N/A   Mist
8:10 PM 37.4 °F - 37.4 °F 100% 30.21 in 1.5 mi Calm Calm - N/A   Partly Cloudy
8:20 PM 37.4 °F - 35.6 °F 93% 30.20 in 2.5 mi Calm Calm - N/A   Mostly Cloudy
8:27 PM 37.4 °F - 35.6 °F 93% 30.19 in 3.0 mi Calm Calm - N/A   Mostly Cloudy
8:30 PM 37.4 °F - 35.6 °F 93% 30.19 in 2.5 mi Calm Calm - N/A   Mostly Cloudy
8:44 PM 39.2 °F - 39.2 °F 100% 30.19 in 3.0 mi Calm Calm - N/A   Overcast
8:53 PM 41.0 °F - 39.0 °F 93% 30.20 in 4.0 mi Calm Calm - N/A   Overcast
9:24 PM 42.8 °F - 41.0 °F 93% 30.20 in 5.0 mi Calm Calm - N/A   Overcast
9:33 PM 42.8 °F - 41.0 °F 93% 30.20 in 1.5 mi Calm Calm - N/A   Overcast
9:44 PM 42.8 °F - 41.0 °F 93% 30.19 in 0.5 mi Calm Calm - N/A Fog Fog
9:53 PM 42.1 °F 39.2 °F 41.0 °F 96% 30.18 in 0.2 mi East 4.6 mph - N/A Fog Fog
10:30 PM 42.8 °F - 41.0 °F 93% 30.19 in 0.2 mi Calm Calm - N/A Fog Fog
10:53 PM 44.1 °F 42.5 °F 43.0 °F 96% 30.21 in 0.5 mi WNW 3.5 mph - N/A Fog Fog
11:00 PM 44.6 °F - 44.6 °F 100% 30.21 in 0.8 mi Calm Calm - N/A   Mist
11:10 PM 44.6 °F - 44.6 °F 100% 30.20 in 1.5 mi Calm Calm - N/A   Overcast
11:39 PM 44.6 °F - 42.8 °F 93% 30.20 in 2.5 mi Calm Calm - N/A   Overcast
11:53 PM 45.0 °F - 43.0 °F 93% 30.18 in 1.8 mi Calm Calm - N/A   Overcast